User: anonymous   Login
Location: Hepcat Sky Observatory
(29.9800°N, 95.6500°W)
Time: 06:41:52
(UTC-05:00)
Language:

Cosmos 1602 Rocket - Orbit

View from above orbital plane
View from above orbital plane
View from above satellite
View from above satellite

Ground track
Ground track

The orbit data is extracted from the following two-line orbital elements,

1 15332U 84105B   17082.96933093 +.00000104 +00000-0 +97560-5 0  9999
2 15332 082.5318 267.7226 0019749 293.0658 227.1623 14.83294975732869
Epoch (UTC): 23 March 2017 23:15:50
Eccentricity: 0.0019749
inclination: 82.5318°
perigee height: 605 km
apogee height: 633 km
right ascension of ascending node: 267.7226°
argument of perigee: 293.0658°
revolutions per day: 14.83294975
mean anomaly at epoch: 227.1623°
orbit number at epoch: 73286

The dashed part of the orbit path shows where the satellite is in the earth's shadow,  

DLR